Time,TemperatureF,DewpointF,PressureIn,WindDirection,WindDirectionDegrees,WindSpeedMPH,WindSpeedGustMPH,Humidity,HourlyPrecipIn,Conditions,Clouds,dailyrainin,SoftwareType,DateUTC
2013-02-24 00:08:00,70.4,59.0,29.92,SW,217,6.0,9.0,67,0.00,,,0.00,weatherlink.com 1.10,2013-02-24 05:08:00,
2013-02-24 00:23:00,70.3,59.0,29.92,SW,217,5.0,8.0,67,0.00,,,0.00,weatherlink.com 1.10,2013-02-24 05:23:00,
2013-02-24 00:38:00,70.1,59.0,29.93,SW,223,5.0,7.0,67,0.00,,,0.00,weatherlink.com 1.10,2013-02-24 05:38:00,
2013-02-24 00:53:00,70.1,59.0,29.93,WSW,238,6.0,7.0,67,0.00,,,0.00,weatherlink.com 1.10,2013-02-24 05:53:00,
2013-02-24 01:08:00,69.7,58.0,29.92,SW,227,4.0,6.0,66,0.00,,,0.00,weatherlink.com 1.10,2013-02-24 06:08:00,
2013-02-24 01:23:00,69.5,57.0,29.92,SW,235,5.0,7.0,65,0.00,,,0.00,weatherlink.com 1.10,2013-02-24 06:23:00,
2013-02-24 01:38:00,69.2,57.0,29.92,SW,226,7.0,9.0,65,0.00,,,0.00,weatherlink.com 1.10,2013-02-24 06:38:00,
2013-02-24 01:53:00,69.0,57.0,29.92,SW,221,5.0,7.0,65,0.00,,,0.00,weatherlink.com 1.10,2013-02-24 06:53:00,
2013-02-24 02:09:00,68.8,56.0,29.91,SSW,210,5.0,6.0,65,0.00,,,0.00,weatherlink.com 1.10,2013-02-24 07:09:00,
2013-02-24 02:24:00,68.7,56.0,29.90,SSW,207,0.0,1.0,65,0.00,,,0.00,weatherlink.com 1.10,2013-02-24 07:24:00,
2013-02-24 02:39:00,68.6,56.0,29.90,SW,224,0.0,1.0,65,0.00,,,0.00,weatherlink.com 1.10,2013-02-24 07:39:00,
2013-02-24 02:54:00,68.6,56.0,29.90,WSW,252,0.0,0.0,65,0.00,,,0.00,weatherlink.com 1.10,2013-02-24 07:54:00,
2013-02-24 03:09:00,68.6,56.0,29.89,WSW,250,0.0,0.0,65,0.00,,,0.00,weatherlink.com 1.10,2013-02-24 08:09:00,
2013-02-24 03:24:00,68.6,56.0,29.89,SW,230,3.0,7.0,65,0.00,,,0.00,weatherlink.com 1.10,2013-02-24 08:24:00,
2013-02-24 03:39:00,68.6,56.0,29.89,WSW,246,5.0,7.0,65,0.00,,,0.00,weatherlink.com 1.10,2013-02-24 08:39:00,
2013-02-24 03:54:00,68.4,57.0,29.90,WSW,245,8.0,9.0,66,0.00,,,0.00,weatherlink.com 1.10,2013-02-24 08:54:00,
2013-02-24 04:09:00,68.2,56.0,29.90,WSW,237,7.0,10.0,66,0.00,,,0.00,weatherlink.com 1.10,2013-02-24 09:09:00,
2013-02-24 04:24:00,68.3,56.0,29.91,WSW,244,9.0,10.0,65,0.00,,,0.00,weatherlink.com 1.10,2013-02-24 09:24:00,
2013-02-24 04:39:00,68.3,56.0,29.91,WSW,238,9.0,12.0,66,0.00,,,0.00,weatherlink.com 1.10,2013-02-24 09:39:00,
2013-02-24 04:54:00,68.3,56.0,29.91,WSW,239,11.0,13.0,66,0.00,,,0.00,weatherlink.com 1.10,2013-02-24 09:54:00,
2013-02-24 05:09:00,68.3,56.0,29.90,SW,223,13.0,13.0,66,0.00,,,0.00,weatherlink.com 1.10,2013-02-24 10:09:00,
2013-02-24 05:24:00,68.5,56.0,29.92,WSW,240,11.0,12.0,65,0.00,,,0.00,weatherlink.com 1.10,2013-02-24 10:24:00,
2013-02-24 05:39:00,68.6,56.0,29.91,SW,222,10.0,11.0,65,0.00,,,0.00,weatherlink.com 1.10,2013-02-24 10:39:00,
2013-02-24 05:54:00,68.8,57.0,29.91,SSW,211,7.0,10.0,66,0.00,,,0.00,weatherlink.com 1.10,2013-02-24 10:54:00,
2013-02-24 06:09:00,69.0,57.0,29.92,SW,234,8.0,9.0,66,0.00,,,0.00,weatherlink.com 1.10,2013-02-24 11:09:00,
2013-02-24 06:24:00,69.3,57.0,29.93,SW,226,8.0,10.0,65,0.00,,,0.00,weatherlink.com 1.10,2013-02-24 11:24:00,
2013-02-24 06:39:00,69.5,58.0,29.93,SW,223,8.0,11.0,66,0.00,,,0.00,weatherlink.com 1.10,2013-02-24 11:39:00,
2013-02-24 06:55:00,69.6,58.0,29.93,WSW,239,7.0,10.0,66,0.00,,,0.00,weatherlink.com 1.10,2013-02-24 11:55:00,
2013-02-24 07:09:00,69.7,58.0,29.93,WSW,253,8.0,10.0,66,0.00,,,0.00,weatherlink.com 1.10,2013-02-24 12:09:00,
2013-02-24 07:24:00,69.8,58.0,29.93,West,263,4.0,6.0,66,0.00,,,0.00,weatherlink.com 1.10,2013-02-24 12:24:00,
2013-02-24 07:39:00,70.0,58.0,29.94,WSW,246,3.0,5.0,67,0.00,,,0.00,weatherlink.com 1.10,2013-02-24 12:39:00,
2013-02-24 07:54:00,70.5,59.0,29.95,West,281,5.0,7.0,68,0.00,,,0.00,weatherlink.com 1.10,2013-02-24 12:54:00,
2013-02-24 08:09:00,70.9,60.0,29.96,WSW,257,5.0,7.0,68,0.00,,,0.00,weatherlink.com 1.10,2013-02-24 13:09:00,
2013-02-24 08:24:00,70.9,60.0,29.95,WSW,250,4.0,6.0,68,0.00,,,0.00,weatherlink.com 1.10,2013-02-24 13:24:00,
2013-02-24 08:39:00,70.8,59.0,29.96,West,259,3.0,4.0,67,0.00,,,0.00,weatherlink.com 1.10,2013-02-24 13:39:00,
2013-02-24 08:54:00,71.0,59.0,29.96,West,259,4.0,6.0,67,0.00,,,0.00,weatherlink.com 1.10,2013-02-24 13:54:00,
2013-02-24 09:09:00,71.1,60.0,29.97,West,275,6.0,8.0,67,0.00,,,0.00,weatherlink.com 1.10,2013-02-24 14:09:00,
2013-02-24 09:24:00,71.3,60.0,29.97,West,277,3.0,4.0,67,0.00,,,0.00,weatherlink.com 1.10,2013-02-24 14:24:00,
2013-02-24 09:39:00,71.2,60.0,29.97,West,269,3.0,4.0,67,0.00,,,0.00,weatherlink.com 1.10,2013-02-24 14:39:00,
2013-02-24 09:54:00,71.3,60.0,29.98,West,267,5.0,5.0,67,0.00,,,0.00,weatherlink.com 1.10,2013-02-24 14:54:00,
2013-02-24 10:09:00,71.6,62.0,29.97,West,262,4.0,6.0,72,0.00,,,0.00,weatherlink.com 1.10,2013-02-24 15:09:00,
2013-02-24 10:24:00,72.0,64.0,29.97,North,360,4.0,7.0,75,0.00,,,0.00,weatherlink.com 1.10,2013-02-24 15:24:00,
2013-02-24 10:39:00,72.2,64.0,29.98,WNW,286,0.0,9.0,76,0.00,,,0.00,weatherlink.com 1.10,2013-02-24 15:39:00,
2013-02-24 10:54:00,72.5,65.0,29.98,West,271,2.0,3.0,76,0.00,,,0.00,weatherlink.com 1.10,2013-02-24 15:54:00,
2013-02-24 11:09:00,72.5,65.0,29.98,West,277,4.0,6.0,78,0.00,,,0.00,weatherlink.com 1.10,2013-02-24 16:09:00,
2013-02-24 11:24:00,72.8,66.0,29.98,NW,309,4.0,5.0,80,0.00,,,0.00,weatherlink.com 1.10,2013-02-24 16:24:00,
2013-02-24 11:39:00,73.1,67.0,29.98,NW,311,1.0,4.0,80,0.00,,,0.00,weatherlink.com 1.10,2013-02-24 16:39:00,
2013-02-24 11:54:00,73.7,67.0,29.97,West,269,0.0,3.0,79,0.00,,,0.00,weatherlink.com 1.10,2013-02-24 16:54:00,
2013-02-24 12:09:00,73.9,67.0,29.97,North,5,0.0,3.0,79,0.00,,,0.00,weatherlink.com 1.10,2013-02-24 17:09:00,
2013-02-24 12:24:00,74.4,68.0,29.98,ESE,102,1.0,4.0,79,0.00,,,0.00,weatherlink.com 1.10,2013-02-24 17:24:00,
2013-02-24 12:39:00,75.1,68.0,29.96,NNE,26,0.0,5.0,78,0.00,,,0.00,weatherlink.com 1.10,2013-02-24 17:39:00,
2013-02-24 12:54:00,75.1,68.0,29.96,NW,319,2.0,5.0,78,0.00,,,0.00,weatherlink.com 1.10,2013-02-24 17:54:00,
2013-02-24 13:09:00,75.1,67.0,29.96,WSW,246,0.0,3.0,77,0.00,,,0.00,weatherlink.com 1.10,2013-02-24 18:09:00,
2013-02-24 13:24:00,74.0,67.0,29.95,SSW,209,0.0,5.0,79,0.00,,,0.00,weatherlink.com 1.10,2013-02-24 18:24:00,
2013-02-24 13:39:00,73.1,66.0,29.95,SSW,213,5.0,5.0,79,0.00,,,0.00,weatherlink.com 1.10,2013-02-24 18:39:00,
2013-02-24 13:54:00,72.5,66.0,29.95,SSW,207,2.0,5.0,80,0.00,,,0.00,weatherlink.com 1.10,2013-02-24 18:54:00,
2013-02-24 14:09:00,72.9,66.0,29.95,SSW,207,0.0,4.0,80,0.00,,,0.00,weatherlink.com 1.10,2013-02-24 19:09:00,
2013-02-24 14:24:00,72.8,66.0,29.95,SSW,209,1.0,3.0,80,0.00,,,0.00,weatherlink.com 1.10,2013-02-24 19:24:00,
2013-02-24 14:39:00,72.8,66.0,29.95,WSW,237,2.0,8.0,79,0.00,,,0.00,weatherlink.com 1.10,2013-02-24 19:39:00,
2013-02-24 14:54:00,72.9,66.0,29.94,WSW,237,0.0,3.0,79,0.00,,,0.00,weatherlink.com 1.10,2013-02-24 19:54:00,
2013-02-24 15:09:00,73.7,67.0,29.94,SSE,157,1.0,3.0,80,0.00,,,0.00,weatherlink.com 1.10,2013-02-24 20:09:00,
2013-02-24 15:24:00,73.7,67.0,29.94,SE,142,0.0,4.0,80,0.00,,,0.00,weatherlink.com 1.10,2013-02-24 20:24:00,
2013-02-24 15:39:00,73.3,66.0,29.93,ESE,123,2.0,5.0,79,0.00,,,0.00,weatherlink.com 1.10,2013-02-24 20:39:00,
2013-02-24 15:54:00,73.2,66.0,29.93,ESE,123,2.0,4.0,79,0.00,,,0.00,weatherlink.com 1.10,2013-02-24 20:54:00,
2013-02-24 16:09:00,73.5,67.0,29.94,ESE,123,0.0,0.0,79,0.00,,,0.00,weatherlink.com 1.10,2013-02-24 21:09:00,
2013-02-24 16:24:00,74.0,67.0,29.93,East,91,0.0,5.0,79,0.00,,,0.00,weatherlink.com 1.10,2013-02-24 21:24:00,
2013-02-24 16:39:00,74.8,68.0,29.93,ENE,78,0.0,7.0,78,0.00,,,0.00,weatherlink.com 1.10,2013-02-24 21:39:00,
2013-02-24 16:54:00,74.9,68.0,29.93,East,95,0.0,4.0,78,0.00,,,0.00,weatherlink.com 1.10,2013-02-24 21:54:00,
2013-02-24 17:09:00,74.2,67.0,29.93,NE,55,2.0,6.0,78,0.00,,,0.00,weatherlink.com 1.10,2013-02-24 22:09:00,
2013-02-24 17:24:00,73.4,67.0,29.93,ESE,109,4.0,7.0,79,0.00,,,0.00,weatherlink.com 1.10,2013-02-24 22:24:00,
2013-02-24 17:39:00,72.6,66.0,29.93,ENE,57,2.0,7.0,79,0.00,,,0.00,weatherlink.com 1.10,2013-02-24 22:39:00,
2013-02-24 17:54:00,72.1,66.0,29.93,ESE,117,4.0,7.0,80,0.00,,,0.00,weatherlink.com 1.10,2013-02-24 22:54:00,
2013-02-24 18:09:00,71.3,65.0,29.93,ESE,107,0.0,8.0,79,0.00,,,0.00,weatherlink.com 1.10,2013-02-24 23:09:00,
2013-02-24 18:24:00,71.0,64.0,29.94,ESE,122,0.0,4.0,79,0.00,,,0.00,weatherlink.com 1.10,2013-02-24 23:24:00,
2013-02-24 18:39:00,70.5,64.0,29.94,ESE,110,7.0,9.0,79,0.00,,,0.00,weatherlink.com 1.10,2013-02-24 23:39:00,
2013-02-24 18:54:00,69.9,63.0,29.95,ESE,113,0.0,8.0,79,0.00,,,0.00,weatherlink.com 1.10,2013-02-24 23:54:00,
2013-02-24 19:09:00,69.5,63.0,29.95,East,86,0.0,6.0,79,0.00,,,0.00,weatherlink.com 1.10,2013-02-25 00:09:00,
2013-02-24 19:24:00,69.2,62.0,29.96,SE,128,2.0,7.0,79,0.00,,,0.00,weatherlink.com 1.10,2013-02-25 00:24:00,
2013-02-24 19:39:00,69.0,62.0,29.97,ESE,118,4.0,8.0,79,0.00,,,0.00,weatherlink.com 1.10,2013-02-25 00:39:00,
2013-02-24 19:55:00,68.8,62.0,29.98,SE,132,0.0,5.0,79,0.00,,,0.00,weatherlink.com 1.10,2013-02-25 00:55:00,
2013-02-24 20:10:00,68.6,62.0,29.98,East,85,0.0,2.0,80,0.00,,,0.00,weatherlink.com 1.10,2013-02-25 01:10:00,
2013-02-24 20:25:00,68.2,62.0,29.98,ESE,103,0.0,3.0,80,0.00,,,0.00,weatherlink.com 1.10,2013-02-25 01:25:00,
2013-02-24 20:40:00,67.8,61.0,29.98,ESE,111,1.0,2.0,80,0.00,,,0.00,weatherlink.com 1.10,2013-02-25 01:40:00,
2013-02-24 20:55:00,67.6,61.0,29.98,East,95,0.0,3.0,80,0.00,,,0.00,weatherlink.com 1.10,2013-02-25 01:55:00,
2013-02-24 21:10:00,67.4,61.0,29.99,NE,44,0.0,1.0,81,0.00,,,0.00,weatherlink.com 1.10,2013-02-25 02:10:00,
2013-02-24 21:25:00,67.0,61.0,29.98,East,80,0.0,1.0,81,0.00,,,0.00,weatherlink.com 1.10,2013-02-25 02:25:00,
2013-02-24 21:40:00,66.7,61.0,29.98,East,80,1.0,3.0,81,0.00,,,0.00,weatherlink.com 1.10,2013-02-25 02:40:00,
2013-02-24 21:55:00,66.2,60.0,29.97,ENE,78,0.0,7.0,81,0.00,,,0.00,weatherlink.com 1.10,2013-02-25 02:55:00,
2013-02-24 22:10:00,65.9,60.0,29.98,ENE,68,0.0,2.0,80,0.00,,,0.00,weatherlink.com 1.10,2013-02-25 03:10:00,
2013-02-24 22:25:00,65.5,59.0,29.97,East,85,0.0,0.0,80,0.00,,,0.00,weatherlink.com 1.10,2013-02-25 03:25:00,
2013-02-24 22:40:00,65.2,59.0,29.96,NNE,28,0.0,3.0,79,0.00,,,0.00,weatherlink.com 1.10,2013-02-25 03:40:00,
2013-02-24 22:55:00,64.8,58.0,29.96,NE,39,0.0,1.0,79,0.00,,,0.00,weatherlink.com 1.10,2013-02-25 03:55:00,
2013-02-24 23:10:00,64.6,58.0,29.96,NE,50,0.0,3.0,78,0.00,,,0.00,weatherlink.com 1.10,2013-02-25 04:10:00,
2013-02-24 23:25:00,64.5,57.0,29.96,East,86,0.0,2.0,77,0.00,,,0.00,weatherlink.com 1.10,2013-02-25 04:25:00,
2013-02-24 23:40:00,64.6,57.0,29.97,ENE,73,0.0,1.0,76,0.00,,,0.00,weatherlink.com 1.10,2013-02-25 04:40:00,
2013-02-24 23:55:00,64.7,57.0,29.96,East,82,0.0,1.0,76,0.00,,,0.00,weatherlink.com 1.10,2013-02-25 04:55:00,